DateTimeUTC,F1_A11,F1_S11,BsB_S11,BsG_S11,BsR_S11,BbsB_S11,BbsG_S11,BbsR_S11,BaB_A11,BaG_A11,BaR_A11,T_S11,U_S11,P_S11,T1_A11
2020-11-15T00:00:00Z,00040388,21000608,,,,,,,,,,21.4,00.0,0640.0,30.7
2020-11-15T00:01:00Z,00040388,21000608,,,,,,,,,,21.4,00.0,0639.9,30.7
2020-11-15T00:02:00Z,00040388,21000608,,,,,,,,,,21.4,00.0,0639.9,30.7
2020-11-15T00:03:00Z,00040388,61000608,,,,,,,,,,21.4,00.0,0639.9,30.7
2020-11-15T00:04:00Z,00040388,41000608,0000.89,0000.11,0000.40,0000.21,0000.33,0000.09,0000.13,0000.14,0000.07,21.3,00.0,0640.7,30.7
2020-11-15T00:05:00Z,00040388,01000608,0000.78,0000.17,0000.74,0000.87,-000.27,0000.08,0000.08,0000.10,0000.08,21.3,00.0,0640.8,30.7
2020-11-15T00:06:00Z,00040388,01000608,0000.66,0001.11,0000.55,0000.03,-000.01,0000.10,0000.10,0000.02,-000.15,21.3,00.0,0640.8,30.7
2020-11-15T00:07:00Z,00040388,01000608,0001.93,0000.39,0000.03,0000.11,0000.57,0000.11,0000.07,0000.12,0000.17,21.3,00.0,0640.9,30.7
2020-11-15T00:08:00Z,00040388,01000608,0001.44,0000.34,0000.58,-000.28,0000.69,0000.30,0000.07,0000.04,0000.09,21.3,00.0,0640.9,30.7
2020-11-15T00:09:00Z,00040388,01000608,-000.01,0000.32,0000.29,-000.24,0000.09,0000.22,-000.19,0000.03,0000.06,21.3,00.0,0640.9,30.7
2020-11-15T00:10:00Z,00040388,01000608,0001.77,0000.21,0000.14,0000.49,0000.23,0000.19,0000.21,0000.03,0000.10,21.3,00.0,0640.9,30.7
2020-11-15T00:11:00Z,00040388,01000608,0001.88,0000.39,0000.83,0000.49,-000.14,0000.34,-000.15,0000.05,-000.16,21.3,00.0,0640.9,30.7
2020-11-15T00:12:00Z,00040388,01000608,0001.05,0000.75,0000.45,0000.61,0000.16,0000.01,0000.00,-000.06,0000.16,21.4,00.0,0641.0,30.7
2020-11-15T00:13:00Z,00040388,01000608,0001.47,0000.85,0000.33,-000.09,0000.04,0000.29,0000.10,0000.04,0000.10,21.4,00.0,0641.0,30.7
2020-11-15T00:14:00Z,00040388,01000608,0000.62,0000.74,0000.51,0000.17,-000.25,0000.08,-000.19,-000.07,-000.27,21.4,00.0,0640.9,30.8
2020-11-15T00:15:00Z,00040388,01000608,0000.19,0000.58,0000.53,0000.79,0000.33,0000.24,-000.05,-000.17,0000.00,21.3,00.0,0640.9,30.8
2020-11-15T00:16:00Z,00040388,01000608,0001.58,0000.43,-000.16,0000.30,0000.57,0000.20,0000.17,0000.10,0000.15,21.3,00.0,0640.9,30.8
2020-11-15T00:17:00Z,00040388,01000608,0002.30,0000.59,0000.43,-000.03,0000.16,0000.05,0000.08,0000.10,-000.04,21.3,00.0,0640.9,30.7
2020-11-15T00:18:00Z,00040388,01000608,0001.61,0000.62,0000.29,0000.88,-000.01,0000.24,0000.10,0000.27,0000.19,21.3,00.0,0640.9,30.7
2020-11-15T00:19:00Z,00040388,01000608,0001.25,0000.14,0000.19,-000.26,0000.33,0000.15,0000.09,-000.13,-000.03,21.3,00.0,0640.9,30.7
2020-11-15T00:20:00Z,00040388,01000608,0001.18,0000.29,0000.43,0000.19,0000.20,-000.02,0000.04,0000.11,0000.17,21.3,00.0,0640.9,30.7
2020-11-15T00:21:00Z,00040388,01000608,0000.60,0000.08,0000.60,-000.42,0000.03,-000.18,0000.04,0000.10,-000.01,21.4,00.0,0640.9,30.7
2020-11-15T00:22:00Z,00040388,01000608,0001.16,0000.08,0000.41,0000.42,0000.50,0000.18,0000.05,-000.05,0000.09,21.4,00.0,0640.9,30.7
2020-11-15T00:23:00Z,00040388,01000608,0001.23,0000.19,0000.44,0000.07,0000.32,0000.10,0000.08,0000.12,0000.14,21.4,00.0,0640.9,30.7
2020-11-15T00:24:00Z,00040388,01000608,0000.99,0000.14,0000.05,0000.63,0000.43,0000.05,0000.02,0000.16,-000.27,21.4,00.0,0641.0,30.7
2020-11-15T00:25:00Z,00040388,01000608,0000.74,0000.54,0000.39,0000.48,0000.48,0000.08,0000.04,0000.11,0000.36,21.4,00.0,0641.0,30.7
2020-11-15T00:26:00Z,00040388,01000608,0000.94,0000.44,0000.39,-000.18,0000.01,0000.22,-000.10,-000.12,-000.03,21.5,00.0,0641.0,30.8
2020-11-15T00:27:00Z,00040388,01000608,0001.64,0000.58,0000.38,0000.73,0000.65,0000.14,0000.03,0000.12,0000.02,21.5,00.0,0641.0,30.7
2020-11-15T00:28:00Z,00040388,01000608,0000.85,0000.32,0000.71,0000.31,0000.64,-000.07,0000.01,0000.06,-000.20,21.4,00.0,0641.0,30.8
2020-11-15T00:29:00Z,00040388,01000608,0001.86,0000.52,0000.65,0000.99,0000.16,0000.32,-000.10,-000.14,0000.12,21.4,00.0,0640.9,30.8
2020-11-15T00:30:00Z,00040388,01000608,0001.10,0000.34,-000.17,0000.24,0000.10,-000.29,0000.21,-000.05,-000.08,21.4,00.0,0640.9,30.8
2020-11-15T00:31:00Z,00040388,01000608,0000.74,0000.22,0000.74,0000.19,0000.29,0000.24,0000.00,0000.14,0000.21,21.4,00.0,0640.9,30.8
2020-11-15T00:32:00Z,00040388,01000608,0001.28,0000.41,0000.19,0000.01,0000.54,0000.14,0000.21,0000.10,0000.09,21.3,00.0,0640.9,30.7
2020-11-15T00:33:00Z,00040388,01000608,0001.03,0000.50,0000.26,0000.41,0000.43,-000.00,0000.21,0000.27,-000.12,21.3,00.0,0640.9,30.7
2020-11-15T00:34:00Z,00040388,01000608,0001.64,0000.03,0000.06,0001.50,-000.19,-000.20,-000.17,0000.13,0000.14,21.3,00.0,0640.9,30.7
2020-11-15T00:35:00Z,00040388,01010608,0001.53,0000.46,-000.13,0000.82,0000.38,-000.35,0000.15,-000.08,0000.11,21.3,00.0,0641.0,30.7
2020-11-15T00:36:00Z,00040388,01000608,0001.08,0000.75,0000.26,0000.38,0000.34,0000.30,0000.13,-000.09,0000.03,21.4,00.0,0641.0,30.7
2020-11-15T00:37:00Z,00040388,01000608,0001.48,0000.81,0000.83,-000.18,0000.48,0000.19,-000.06,0000.23,0000.03,21.4,00.0,0641.0,30.7
2020-11-15T00:38:00Z,00040388,01000608,0001.37,0000.45,0000.69,0000.92,0000.17,-000.00,0000.00,-000.24,0000.13,21.4,00.0,0641.0,30.7
2020-11-15T00:39:00Z,00040388,01000608,0000.19,0000.17,0000.05,-000.04,0000.00,0000.10,0000.04,0000.19,-000.08,21.5,00.0,0641.1,30.7
2020-11-15T00:40:00Z,00040388,01000608,0000.89,0000.25,0000.23,0000.33,0000.31,0000.18,-000.06,0000.05,0000.12,21.5,00.0,0641.1,30.7
2020-11-15T00:41:00Z,00040388,01000608,0000.85,0000.36,0000.48,0000.08,0000.19,0000.20,0000.12,0000.08,0000.02,21.5,00.0,0641.1,30.7
2020-11-15T00:42:00Z,00040388,01000608,0001.25,0000.15,0000.56,0000.44,0000.09,-000.00,-000.17,-000.08,0000.01,21.5,00.0,0641.1,30.7
2020-11-15T00:43:00Z,00040388,01000608,0001.60,0000.58,0000.05,-000.32,0000.01,0000.10,0000.18,-000.02,0000.08,21.5,00.0,0641.1,30.8
2020-11-15T00:44:00Z,00040388,01000608,0001.76,0000.70,0000.37,0000.47,0000.08,0000.29,-000.17,0000.17,-000.01,21.5,00.0,0641.1,30.8
2020-11-15T00:45:00Z,00040388,01000608,0001.49,0000.37,0000.66,0000.93,0000.28,0000.15,-000.08,-000.16,-000.10,21.4,00.0,0641.1,30.8
2020-11-15T00:46:00Z,00040388,01000608,0001.78,0000.31,0000.24,-000.41,-000.01,-000.21,0000.11,0000.09,-000.05,21.4,00.0,0641.1,30.8
2020-11-15T00:47:00Z,00040388,01000608,0001.20,0000.24,0000.79,0000.97,0000.26,0000.09,0000.09,0000.15,0000.35,21.4,00.0,0641.1,30.7
2020-11-15T00:48:00Z,00040388,01000608,0001.21,0000.52,0000.07,0000.38,0000.61,-000.11,0000.04,-000.09,-000.19,21.4,00.0,0641.2,30.7
2020-11-15T00:49:00Z,00040388,01000608,0001.30,0000.88,0000.46,-000.20,0000.16,0000.08,-000.03,-000.00,0000.02,21.4,00.0,0641.2,30.7
2020-11-15T00:50:00Z,00040388,01000608,0001.53,0000.29,0000.19,-000.04,0000.73,-000.09,-000.06,-000.05,-000.04,21.4,00.0,0641.2,30.7
2020-11-15T00:51:00Z,00040388,01000608,0000.98,0000.52,0000.32,0000.18,0000.63,0000.06,0000.28,0000.12,0000.20,21.4,00.0,0641.2,30.7
2020-11-15T00:52:00Z,00040388,01000608,0001.10,0000.25,0000.52,0000.36,0000.04,-000.01,-000.03,0000.07,-000.00,21.5,00.0,0641.2,30.7
2020-11-15T00:53:00Z,00040388,01000608,0001.11,0000.32,0000.93,0000.23,0000.92,-000.06,0000.07,0000.04,0000.02,21.5,00.0,0641.2,30.8
2020-11-15T00:54:00Z,00040388,01000608,0000.82,0000.17,0000.34,0000.73,0000.06,-000.02,-000.03,-000.12,-000.01,21.5,00.0,0641.3,30.7
2020-11-15T00:55:00Z,00040388,01000608,0000.34,0000.32,0000.57,0000.05,0000.00,0000.12,0000.14,0000.22,0000.16,21.5,00.0,0641.3,30.7
2020-11-15T00:56:00Z,00040388,01000608,0001.15,0000.60,-000.03,0000.36,0000.19,0000.20,-000.10,0000.09,-000.02,21.5,00.0,0641.2,30.7
2020-11-15T00:57:00Z,00040388,41000608,,,,,,,,,,21.6,00.0,0641.3,30.8
2020-11-15T00:58:00Z,00040388,61000608,,,,,,,,,,21.6,00.0,0640.5,30.8
2020-11-15T00:59:00Z,00040388,21000608,,,,,,,,,,21.7,00.0,0640.5,30.8
2020-11-15T01:00:00Z,00040388,21000608,,,,,,,,,,21.7,00.0,0640.5,30.8
2020-11-15T01:01:00Z,00040388,21000608,,,,,,,,,,21.7,00.0,0640.5,30.8
2020-11-15T01:02:00Z,00040388,21000608,,,,,,,,,,21.7,00.0,0640.5,30.7
2020-11-15T01:03:00Z,00040388,61000608,,,,,,,,,,21.7,00.0,0640.5,30.7
2020-11-15T01:04:00Z,00040388,41000608,0000.37,0000.55,0000.35,0000.85,0000.04,0000.37,-000.09,0000.06,-000.03,21.5,00.0,0641.4,30.7
2020-11-15T01:05:00Z,00040388,01000608,0000.89,0000.26,-000.01,0000.82,0000.11,0000.31,-000.00,0000.01,0000.01,21.5,00.0,0641.4,30.7
2020-11-15T01:06:00Z,00040388,01000608,0001.34,0000.43,0000.08,0000.28,0000.29,-000.19,0000.23,-000.12,0000.21,21.5,00.0,0641.4,30.7
2020-11-15T01:07:00Z,00040388,01000608,0000.93,0000.35,0000.60,0001.56,0000.03,0000.37,-000.05,0000.23,0000.07,21.5,00.0,0641.4,30.7
2020-11-15T01:08:00Z,00040388,01000608,0000.17,0000.62,0000.21,0000.23,0000.36,-000.37,0000.17,0000.05,-000.10,21.5,00.0,0641.4,30.7
2020-11-15T01:09:00Z,00040388,01000608,0000.83,0000.66,-000.35,0001.22,0000.57,0000.05,0000.04,0000.10,0000.08,21.5,00.0,0641.4,30.7
2020-11-15T01:10:00Z,00040388,01000608,0000.93,-000.12,-000.22,0000.57,-000.32,-000.22,-000.09,0000.31,0000.12,21.5,00.0,0641.4,30.7
2020-11-15T01:11:00Z,00040388,01000608,0000.87,0000.83,0000.28,0000.48,-000.17,-000.09,0000.03,-000.19,0000.04,21.5,00.0,0641.4,30.7
2020-11-15T01:12:00Z,00040388,01000608,0000.48,0000.37,0000.20,-000.19,-000.08,-000.08,0000.07,-000.02,-000.08,21.4,00.0,0641.3,30.8
2020-11-15T01:13:00Z,00040388,01000608,0002.23,0000.86,0000.41,0000.41,0000.46,0000.33,-000.11,0000.08,0000.12,21.4,00.0,0641.3,30.8
2020-11-15T01:14:00Z,00040388,01000608,0001.59,0000.18,-000.07,0000.46,0000.35,-000.13,0000.16,0000.01,-000.03,21.4,00.0,0641.3,30.8
2020-11-15T01:15:00Z,00040388,01000608,0000.87,0000.44,0000.25,0000.41,-000.36,-000.08,-000.02,-000.10,0000.21,21.4,00.0,0641.2,30.8
2020-11-15T01:16:00Z,00040388,01000608,0001.06,0000.38,0000.59,0000.70,0000.26,-000.08,0000.26,0000.12,-000.19,21.4,00.0,0641.2,30.7
2020-11-15T01:17:00Z,00040388,01000608,0000.85,0000.56,0000.02,0000.78,0000.10,-000.13,-000.00,0000.24,0000.12,21.3,00.0,0641.3,30.7
2020-11-15T01:18:00Z,00040388,01000608,0000.96,0000.15,0000.43,0000.82,0000.40,0000.33,0000.09,-000.12,0000.15,21.3,00.0,0641.2,30.7
2020-11-15T01:19:00Z,00040388,01000608,0001.05,0000.31,0000.36,0000.72,0000.32,0000.02,0000.14,0000.42,0000.02,21.4,00.0,0641.3,30.7
2020-11-15T01:20:00Z,00040388,01000608,0000.05,0000.46,0000.05,0000.74,0000.38,-000.04,0000.03,-000.18,0000.18,21.4,00.0,0641.3,30.7
2020-11-15T01:21:00Z,00040388,01000608,0001.72,0000.38,0000.15,0000.43,0000.24,-000.33,0000.15,0000.31,0000.12,21.4,00.0,0641.3,30.7
2020-11-15T01:22:00Z,00040388,01000608,0000.63,0000.28,0000.53,0001.03,0000.48,0000.05,-000.04,-000.04,-000.04,21.4,00.0,0641.4,30.7
2020-11-15T01:23:00Z,00040388,01000608,0000.36,0000.98,0000.16,0001.43,0000.18,0000.13,0000.09,-000.07,0000.05,21.4,00.0,0641.4,30.7
2020-11-15T01:24:00Z,00040388,01000608,0001.68,0000.27,0000.38,0001.26,-000.21,0000.11,0000.11,0000.06,0000.10,21.4,00.0,0641.4,30.7
2020-11-15T01:25:00Z,00040388,01000608,0001.28,-000.13,0000.21,0001.39,0000.27,-000.12,0000.09,0000.30,-000.09,21.5,00.0,0641.4,30.7
2020-11-15T01:26:00Z,00040388,01000608,0001.03,0000.55,0000.41,-000.01,0000.34,0000.25,0000.08,0000.04,0000.14,21.5,00.0,0641.3,30.7
2020-11-15T01:27:00Z,00040388,01000608,0000.85,0000.34,0000.06,0000.55,0000.13,-000.05,0000.02,0000.08,0000.15,21.5,00.0,0641.4,30.7
2020-11-15T01:28:00Z,00040388,01000608,0000.36,0000.24,-000.09,0000.43,0000.28,0000.25,-000.10,-000.07,-000.20,21.4,00.0,0641.3,30.7
2020-11-15T01:29:00Z,00040388,01000608,0000.01,0000.93,0000.01,0000.56,0000.17,0000.05,0000.21,0000.01,-000.02,21.4,00.0,0641.2,30.8
2020-11-15T01:30:00Z,00040388,01000608,0001.09,0000.25,0000.23,0000.01,0000.01,-000.07,-000.22,-000.11,0000.10,21.4,00.0,0641.2,30.8
2020-11-15T01:31:00Z,00040388,01000608,0000.98,0000.37,0000.16,0000.51,-000.28,0000.08,0000.04,0000.22,0000.03,21.4,00.0,0641.2,30.8
2020-11-15T01:32:00Z,00040388,01000608,-000.28,0000.39,0000.11,-000.20,0000.15,-000.13,0000.21,-000.02,0000.01,21.3,00.0,0641.3,30.7
2020-11-15T01:33:00Z,00040388,01000608,-001.04,0000.82,0000.40,0000.58,-000.22,-000.17,0000.20,0000.07,0000.12,21.3,00.0,0641.2,30.7
2020-11-15T01:34:00Z,00040388,01000608,-000.63,0000.88,0000.07,0000.42,0000.36,-000.32,0000.00,0000.05,0000.06,21.4,00.0,0641.2,30.7
2020-11-15T01:35:00Z,00040388,01000608,0000.75,0000.39,0000.10,0000.73,-000.15,0000.11,-000.08,0000.05,-000.04,21.4,00.0,0641.2,30.7
2020-11-15T01:36:00Z,00040388,01000608,0001.49,0000.62,0000.53,0001.19,0000.20,-000.14,0000.06,0000.09,0000.18,21.4,00.0,0641.2,30.7
2020-11-15T01:37:00Z,00040388,01000608,0000.34,0000.65,-000.09,0000.69,0000.42,-000.10,0000.17,-000.03,-000.08,21.4,00.0,0641.3,30.7
2020-11-15T01:38:00Z,00040388,01000608,0001.03,0000.56,-000.07,0001.88,0000.28,0000.05,-000.00,0000.05,0000.08,21.4,00.0,0641.2,30.7
2020-11-15T01:39:00Z,00040388,01000608,0000.57,0000.09,0000.62,0000.32,-000.20,0000.07,0000.13,0000.09,0000.24,21.5,00.0,0641.3,30.7
2020-11-15T01:40:00Z,00040388,01000608,0000.51,0001.17,-000.05,0000.66,0000.11,-000.15,-000.13,-000.09,-000.13,21.5,00.0,0641.2,30.7
2020-11-15T01:41:00Z,00040388,01000608,0001.37,0000.42,-000.01,0000.83,0000.17,-000.08,0000.13,0000.07,0000.03,21.5,00.0,0641.3,30.8
2020-11-15T01:42:00Z,00040388,01000608,0001.99,0000.29,-000.06,0000.19,0000.30,-000.00,-000.10,0000.16,0000.00,21.5,00.0,0641.2,30.8
2020-11-15T01:43:00Z,00040388,01000608,0001.33,0000.26,-000.03,0000.83,-000.00,-000.27,0000.05,-000.10,0000.02,21.5,00.0,0641.2,30.8
2020-11-15T01:44:00Z,00040388,01000608,0001.47,0000.41,0000.47,0000.69,-000.18,-000.35,-000.09,0000.06,-000.17,21.4,00.0,0641.2,30.8
2020-11-15T01:45:00Z,00040388,01000608,0000.79,0000.23,0000.11,-000.01,0000.30,-000.33,0000.10,0000.16,0000.36,21.4,00.0,0641.2,30.8
2020-11-15T01:46:00Z,00040388,01000608,0000.47,0000.55,0000.21,-000.17,0000.13,0000.18,0000.12,-000.02,-000.12,21.4,00.0,0641.2,30.8
2020-11-15T01:47:00Z,00040388,01000608,0001.11,0000.84,0000.40,-000.85,0000.38,0000.00,-000.00,0000.11,0000.23,21.4,00.0,0641.2,30.7
2020-11-15T01:48:00Z,00040388,01000608,0000.84,0000.60,0000.16,0000.87,0000.41,-000.29,0000.14,-000.01,-000.07,21.4,00.0,0641.2,30.7
2020-11-15T01:49:00Z,00040388,01000608,0000.35,0000.09,0000.65,0000.30,0000.34,-000.34,0000.02,-000.03,-000.00,21.4,00.0,0641.2,30.7
2020-11-15T01:50:00Z,00040388,01000608,0001.16,0000.74,0000.36,0000.51,0000.06,-000.09,0000.06,0000.01,-000.05,21.4,00.0,0641.2,30.7
2020-11-15T01:51:00Z,00040388,01000608,0000.36,0000.88,0000.40,-000.14,0000.11,0000.30,0000.07,0000.20,0000.19,21.5,00.0,0641.1,30.8
2020-11-15T01:52:00Z,00040388,01000608,0001.46,0000.72,0000.07,0001.19,0000.29,-000.06,0000.01,-000.10,0000.23,21.5,00.0,0641.1,30.7
2020-11-15T01:53:00Z,00040388,01000608,0000.86,0000.51,0000.05,0000.73,0000.19,0000.08,0000.22,0000.22,-000.12,21.5,00.0,0641.1,30.7
2020-11-15T01:54:00Z,00040388,01000608,0000.99,0000.41,0000.37,0000.05,0000.20,0000.19,0000.10,0000.12,0000.01,21.5,00.0,0641.1,30.7
2020-11-15T01:55:00Z,00040388,01000608,0001.40,0000.02,0000.33,0000.76,-000.22,0000.35,0000.13,-000.02,0000.13,21.5,00.0,0641.1,30.7
2020-11-15T01:56:00Z,00040388,01000608,0001.48,0000.88,-000.13,0000.25,0000.15,0000.07,0000.23,0000.31,0000.20,21.6,00.0,0641.1,30.7
2020-11-15T01:57:00Z,00040388,41000608,,,,,,,,,,21.6,00.0,0641.2,30.8
2020-11-15T01:58:00Z,00040388,61000608,,,,,,,,,,21.6,00.0,0640.3,30.8
2020-11-15T01:59:00Z,00040388,21000608,,,,,,,,,,21.7,00.0,0640.2,30.8
2020-11-15T02:00:00Z,00040388,21000608,,,,,,,,,,21.7,00.0,0640.2,30.8
2020-11-15T02:01:00Z,00040388,21000608,,,,,,,,,,21.7,00.0,0640.2,30.8
2020-11-15T02:02:00Z,00040388,21000608,,,,,,,,,,21.7,00.0,0640.2,30.7
2020-11-15T02:03:00Z,00040388,61000608,,,,,,,,,,21.7,00.0,0640.2,30.7
2020-11-15T02:04:00Z,00040388,41000608,0001.15,0001.18,0000.58,0000.97,-000.05,0000.01,0000.23,-000.11,0000.05,21.5,00.0,0641.0,30.7
2020-11-15T02:05:00Z,00040388,01000608,0001.15,0000.46,0000.35,0000.28,-000.10,0000.46,-000.12,0000.22,0000.09,21.5,00.0,0641.1,30.7
2020-11-15T02:06:00Z,00040388,01000608,0000.77,0000.77,0000.41,0000.06,0000.24,0000.05,0000.21,0000.00,-000.01,21.5,00.0,0641.1,30.7
2020-11-15T02:07:00Z,00040388,01000608,0001.78,0000.45,-000.13,0000.34,0000.09,-000.08,-000.19,-000.07,0000.13,21.5,00.0,0641.1,30.7
2020-11-15T02:08:00Z,00040388,01000608,0002.21,0001.17,0000.72,0000.13,0000.19,-000.17,0000.22,0000.27,-000.02,21.5,00.0,0641.1,30.7
2020-11-15T02:09:00Z,00040388,01000608,0002.03,0001.09,0000.47,0000.22,-000.01,0000.09,-000.11,-000.05,-000.08,21.5,00.0,0641.1,30.8
2020-11-15T02:10:00Z,00040388,01000608,0000.46,0000.84,0000.20,-000.18,-000.34,0000.28,-000.20,-000.13,0000.02,21.5,00.0,0641.1,30.8
2020-11-15T02:11:00Z,00040388,01000608,0002.06,0001.18,0000.50,0000.56,-000.23,-000.19,0000.13,-000.03,-000.04,21.5,00.0,0641.1,30.8
2020-11-15T02:12:00Z,00040388,01000608,0002.06,0000.63,0000.13,0000.13,-000.12,-000.08,0000.01,-000.02,0000.01,21.5,00.0,0641.0,30.8
2020-11-15T02:13:00Z,00040388,01000608,0000.98,0000.97,0000.58,0000.02,-000.37,0000.15,0000.12,0000.02,0000.08,21.5,00.0,0641.1,30.8
2020-11-15T02:14:00Z,00040388,01000608,0001.19,0000.23,0000.43,-000.75,-000.33,0000.06,-000.01,0000.07,0000.07,21.4,00.0,0641.1,30.8
2020-11-15T02:15:00Z,00040388,01000608,0001.31,0000.49,0000.23,-000.32,0000.50,0000.12,-000.09,0000.14,0000.10,21.4,00.0,0641.1,30.8
2020-11-15T02:16:00Z,00040388,01000608,0002.01,0000.65,0000.29,0000.07,-000.16,0000.21,0000.30,0000.10,0000.09,21.4,00.0,0641.1,30.7
2020-11-15T02:17:00Z,00040388,01000608,0000.63,0000.82,0000.36,0000.13,-000.27,0000.18,-000.14,0000.02,-000.05,21.4,00.0,0641.2,30.7
2020-11-15T02:18:00Z,00040388,01000608,0001.40,0000.95,0000.61,0001.07,-000.03,0000.19,0000.10,-000.07,0000.03,21.3,00.0,0641.2,30.7
2020-11-15T02:19:00Z,00040388,01000608,0001.36,0000.83,0000.53,0000.48,0000.04,0000.47,-000.17,0000.16,-000.01,21.4,00.0,0641.2,30.7
2020-11-15T02:20:00Z,00040388,01000608,0000.30,0000.38,0000.47,-000.08,-000.18,0000.25,0000.13,-000.15,0000.04,21.4,00.0,0641.3,30.7
2020-11-15T02:21:00Z,00040388,01000608,0000.49,0001.38,0000.72,0000.27,-000.25,0000.22,0000.07,0000.03,-000.09,21.4,00.0,0641.3,30.7
2020-11-15T02:22:00Z,00040388,01000608,0001.60,0000.65,0000.73,0000.17,0000.21,0000.01,0000.13,-000.03,0000.04,21.4,00.0,0641.3,30.7
2020-11-15T02:23:00Z,00040388,01000608,0000.13,0001.02,0000.54,-000.63,0000.03,-000.04,-000.03,0000.15,0000.11,21.4,00.0,0641.3,30.7
2020-11-15T02:24:00Z,00040388,01000608,0000.56,0000.32,0000.36,0000.70,0000.11,-000.11,0000.08,-000.13,-000.06,21.4,00.0,0641.3,30.7
2020-11-15T02:25:00Z,00040388,01000608,0000.80,0000.23,0000.76,0000.24,-000.27,-000.15,-000.07,0000.21,0000.05,21.5,00.0,0641.3,30.7
2020-11-15T02:26:00Z,00040388,01000608,0001.15,0000.93,0000.40,0000.00,-000.06,0000.23,-000.10,-000.14,0000.11,21.5,00.0,0641.2,30.8
2020-11-15T02:27:00Z,00040388,01000608,0001.35,0000.92,0000.14,0000.69,0000.16,-000.02,0000.21,-000.15,-000.15,21.5,00.0,0641.3,30.7
2020-11-15T02:28:00Z,00040388,01000608,0001.52,0000.59,0000.42,0000.08,0000.29,0000.12,-000.25,0000.02,0000.15,21.5,00.0,0641.2,30.8
2020-11-15T02:29:00Z,00040388,01000608,0000.78,0000.95,0000.36,0001.03,0000.27,0000.45,0000.03,0000.22,-000.00,21.5,00.0,0641.2,30.8
2020-11-15T02:30:00Z,00040388,01000608,0000.26,0000.88,0000.06,0000.60,0000.28,-000.04,0000.09,0000.05,0000.12,21.4,00.0,0641.1,30.8
2020-11-15T02:31:00Z,00040388,01000608,0002.52,0000.68,0000.65,0000.03,0000.10,0000.11,0000.24,0000.02,0000.04,21.4,00.0,0641.1,30.8
2020-11-15T02:32:00Z,00040388,01000608,0000.59,0001.52,0000.48,-000.02,0000.04,0000.26,-000.01,0000.03,-000.10,21.4,00.0,0641.1,30.7
2020-11-15T02:33:00Z,00040388,01000608,0001.93,0000.43,0000.22,0000.60,-000.15,-000.03,0000.11,-000.03,0000.08,21.4,00.0,0641.1,30.7
2020-11-15T02:34:00Z,00040388,01000608,0000.26,0000.46,0000.26,0000.23,-000.33,0000.15,0000.16,0000.44,0000.18,21.4,00.0,0641.1,30.7
2020-11-15T02:35:00Z,00040388,01000608,-000.12,0000.57,0000.49,-000.49,-000.29,-000.03,0000.15,-000.18,0000.22,21.4,00.0,0641.1,30.7
2020-11-15T02:36:00Z,00040388,01000608,0000.16,0001.30,0001.00,0000.40,0000.29,0000.17,-000.02,0000.36,0000.04,21.4,00.0,0641.1,30.7
2020-11-15T02:37:00Z,00040388,01000608,0000.86,0000.51,0000.50,0000.27,-000.13,0000.26,0000.16,0000.04,-000.11,21.4,00.0,0641.1,30.7
2020-11-15T02:38:00Z,00040388,01000608,0001.05,0000.24,-000.20,0000.35,-000.01,0000.04,0000.03,-000.09,0000.08,21.5,00.0,0641.1,30.7
2020-11-15T02:39:00Z,00040388,01000608,0002.01,0001.37,0000.52,0000.16,-000.28,-000.11,0000.27,0000.30,0000.09,21.5,00.0,0641.1,30.7
2020-11-15T02:40:00Z,00040388,01000608,0000.97,0000.40,0000.25,-000.06,0000.28,0000.01,0000.11,0000.04,0000.03,21.5,00.0,0641.1,30.7
2020-11-15T02:41:00Z,00040388,01000608,0002.09,0001.02,0000.52,0000.55,0000.32,0000.00,-000.21,0000.06,0000.05,21.5,00.0,0641.2,30.8
2020-11-15T02:42:00Z,00040388,01000608,0001.35,0000.60,0000.01,0000.80,0000.01,-000.04,0000.23,0000.16,0000.03,21.5,00.0,0641.2,30.8
2020-11-15T02:43:00Z,00040388,01000608,0001.80,0000.54,0000.35,0000.06,0000.13,-000.28,-000.10,-000.16,0000.08,21.5,00.0,0641.1,30.8
2020-11-15T02:44:00Z,00040388,01000608,0001.68,0000.90,-000.02,0000.18,0000.14,0000.15,-000.01,0000.09,-000.08,21.5,00.0,0641.1,30.8
2020-11-15T02:45:00Z,00040388,01000608,0001.33,0000.75,0000.51,0000.19,-000.02,-000.05,0000.09,0000.01,0000.12,21.5,00.0,0641.1,30.8
2020-11-15T02:46:00Z,00040388,01000608,0001.04,0001.12,0000.16,-000.10,-000.24,0000.27,0000.13,0000.06,0000.11,21.4,00.0,0641.1,30.8
2020-11-15T02:47:00Z,00040388,01000608,0001.19,0000.61,-000.05,0000.61,-000.21,-000.13,0000.19,0000.16,-000.06,21.4,00.0,0641.1,30.8
2020-11-15T02:48:00Z,00040388,01000608,0000.30,0000.76,-000.15,-000.36,-000.69,-000.37,-000.09,-000.27,0000.14,21.4,00.0,0641.1,30.8
2020-11-15T02:49:00Z,00040388,01000608,0001.35,0000.60,0000.08,0000.48,-000.07,-000.19,0000.03,0000.16,0000.01,21.4,00.0,0641.1,30.7
2020-11-15T02:50:00Z,00040388,01000608,0000.81,0000.62,0000.10,0000.94,-000.20,0000.00,0000.09,0000.10,0000.11,21.5,00.0,0641.2,30.7
2020-11-15T02:51:00Z,00040388,01000608,0000.82,0000.56,-000.06,-000.04,0000.07,0000.08,-000.00,0000.20,0000.04,21.5,00.0,0641.2,30.7
2020-11-15T02:52:00Z,00040388,01000608,0000.93,0000.65,-000.26,-000.39,-000.14,-000.06,0000.06,-000.17,-000.07,21.5,00.0,0641.2,30.7
2020-11-15T02:53:00Z,00040388,01000608,0001.56,0000.74,0000.18,0000.05,-000.22,0000.00,0000.01,0000.01,0000.13,21.5,00.0,0641.2,30.7
2020-11-15T02:54:00Z,00040388,01000608,0001.75,0000.51,0000.20,-000.01,-000.05,0000.28,-000.01,0000.20,-000.07,21.5,00.0,0641.2,30.7
2020-11-15T02:55:00Z,00040388,01000608,0001.33,0001.11,0000.17,-000.82,-000.31,-000.03,0000.05,-000.05,0000.14,21.6,00.0,0641.2,30.8
2020-11-15T02:56:00Z,00040388,01000608,0001.61,0000.70,0000.12,0000.43,-000.11,0000.34,-000.11,-000.07,-000.06,21.6,00.0,0641.2,30.8
2020-11-15T02:57:00Z,00040388,41000608,,,,,,,,,,21.6,00.0,0641.3,30.8
2020-11-15T02:58:00Z,00040388,61000608,,,,,,,,,,21.6,00.0,0640.4,30.8
2020-11-15T02:59:00Z,00040388,21000608,,,,,,,,,,21.7,00.0,0640.4,30.8
2020-11-15T03:00:00Z,00040388,21000608,,,,,,,,,,21.7,00.0,0640.4,30.8
2020-11-15T03:01:00Z,00040388,21000608,,,,,,,,,,21.7,00.0,0640.4,30.8
2020-11-15T03:02:00Z,00040388,21000608,,,,,,,,,,21.7,00.0,0640.4,30.7
2020-11-15T03:03:00Z,00040388,61000608,,,,,,,,,,21.7,00.0,0640.4,30.7
2020-11-15T03:04:00Z,00040388,41000608,0000.71,0000.53,0000.32,-000.81,0000.09,-000.16,0000.30,0000.12,-000.03,21.6,00.0,0641.1,30.7
2020-11-15T03:05:00Z,00040388,01000608,0001.43,-000.37,0000.45,-000.19,-000.25,0000.12,-000.15,-000.02,0000.13,21.5,00.0,0641.3,30.7
2020-11-15T03:06:00Z,00040388,01000608,-000.06,0000.57,0000.09,-000.65,-000.27,-000.16,-000.07,-000.10,-000.25,21.6,00.0,0641.3,30.7
2020-11-15T03:07:00Z,00040388,01000608,0000.51,0000.60,0000.44,-000.38,-000.01,-000.11,0000.25,0000.26,0000.30,21.6,00.0,0641.3,30.7
2020-11-15T03:08:00Z,00040388,01000608,-000.15,0000.80,-000.06,-000.17,0000.20,-000.19,-000.22,-000.04,-000.20,21.6,00.0,0641.3,30.8
2020-11-15T03:09:00Z,00040388,01000608,0001.25,0000.64,0000.54,-000.13,0000.22,0000.22,0000.16,-000.07,0000.12,21.6,00.0,0641.3,30.8
2020-11-15T03:10:00Z,00040388,01000608,0000.61,0000.53,0000.19,0000.24,0000.15,-000.29,-000.14,0000.07,-000.07,21.6,00.0,0641.3,30.8